Zurück zum Katalog

STARLINK-11394

AktivKommunikationVLEO
NORAD 62218·PAYLOAD·🇺🇸 United States

Gestartet Dec 5, 2024 von Vandenberg Space Force Base

Loading…

Nächste Überflüge (nächste 24 Stunden)

TLE

AktuellSource: CelesTrak SupGP

Epoche: Sep 14, 2026, 22:34 UTC

1 62218C 24231A   26257.94076389  .00070674  00000+0  58208-3 0  2575
2 62218  53.1572 248.3355 0001156  89.0143 334.3056 15.69677450    17

Verfolge STARLINK-11394 in Echtzeit mit AllMySat

Download on the App Store